{"data":{"norad_id":63081,"intl_designator":"2025-037E","name":"STARLINK-32895","alt_names":[],"object_type":"PAYLOAD","status":"ACTIVE","operator":null,"country":"US","launch_date":"2025-02-23","launch_site_code":"AFWTR","launch_vehicle":null,"mission":null,"orbit_class":"UNKNOWN","rcs_meters":null,"size_class":null,"mass_kg":null,"dimensions":null,"purposes":["comms"],"wikipedia_slug":null,"has_3d_model":false,"image_url":null,"decayed_at":null,"tle_current":{"epoch":"2026-05-25T02:24:52.326432Z","epoch_age_seconds":67175,"freshness":"FRESH","line1":"1 63081U 25037E   26145.10060563  .00003754  00000+0  32221-3 0  9995","line2":"2 63081  70.0004 161.9583 0004407 265.6179  94.4476 14.98329987 69903","mean_motion":14.98329987,"eccentricity":0.0004407,"inclination_deg":70.0004,"raan_deg":161.9583,"arg_perigee_deg":265.6179,"mean_anomaly_deg":94.4476,"bstar":0.00032221,"rev_number":6990,"period_min":96.106999959549,"perigee_km":568.99298112109,"apogee_km":575.1188811706,"semimajor_km":6950.1929311458,"source":"CELESTRAK","updated_at":"2026-05-25T13:38:19.877559Z"}}}